View from above orbital plane
|
View from above satellite
|
Ground track
|
The orbit data is extracted from the following two-line orbital elements,
1 26907U 01040C 21102.79738534 0.00000024 00000-0 20697-4 0 08
2 26907 63.4042 57.3597 0497554 2.2779 357.7221 13.41330885 05
Epoch (UTC): | 12 April 2021 19:08:14 |
Eccentricity: | 0.0497554 |
inclination: | 63.4042° |
perigee height: | 732 km |
apogee height: | 1476 km |
right ascension of ascending node: | 57.3597° |
argument of perigee: | 2.2779° |
revolutions per day: | 13.41330885 |
mean anomaly at epoch: | 357.7221° |
orbit number at epoch: | 0 |
The dashed part of the orbit path shows where the satellite is in the earth's shadow,
|
|